IZ2WMD-13 Weather Reports


Display with metric or nautical units.
time (UTC)temp
F
wind
direction
speed
MPH
gust
MPH
rain 1hr
in
rain 24hr
in
rain mn
in
humidity
%
barometer
mb
20260507163901 68 0.0 0.0 0.00 0.00 0.00 49 1010.5
20260507115752 74 0.0 0.0 0.00 0.00 0.00 47 1011.4
20260507105738 72 0.0 0.0 0.00 0.00 0.00 55 1012.0
20260507103733 71 0.0 0.0 0.00 0.00 0.00 56 1012.1
20260507091713 67 0.0 0.0 0.00 0.00 0.00 62 1012.6
20260507085708 68 0.0 0.0 0.00 0.00 0.00 56 1012.6
20260507081659 62 0.0 0.0 0.00 0.00 0.00 75 1012.7
20260507075653 60 0.0 0.0 0.00 0.00 0.00 77 1012.8
20260507053619 53 0.0 0.0 0.00 0.00 0.00 94 1012.2
20260507051614 53 0.0 0.0 0.00 0.00 0.00 95 1012.1
20260507043604 52 0.0 0.0 0.00 0.00 0.00 96 1011.6
20260507035554 51 0.0 0.0 0.00 0.00 0.00 97 1011.4
20260507033549 51 0.0 0.0 0.00 0.00 0.00 97 1011.4
20260507025540 51 0.0 0.0 0.00 0.00 0.00 99 1011.3
20260507023534 50 0.0 0.0 0.00 0.00 0.00 98 1011.5
20260507021257 51 0.0 0.0 0.00 0.00 0.00 96 1011.4
20260507005237 52 0.0 0.0 0.00 0.00 0.00 96 1010.8
20260507003232 52 0.0 0.0 0.00 0.00 0.00 95 1010.8
20260507001227 52 0.0 0.0 0.00 0.00 0.00 97 1010.8
20260506233217 51 0.0 0.0 0.00 0.00 0.00 99 1010.9
20260506225207 51 0.0 0.0 0.00 0.00 0.00 98 1010.7
20260506221158 51 0.0 0.0 0.00 0.00 0.00 96 1010.7
20260506213148 52 0.0 0.0 0.00 0.00 0.00 93 1010.4
20260506205139 52 0.0 0.0 0.00 0.00 0.00 91 1010.5
20260506203132 53 0.0 0.0 0.00 0.00 0.00 88 1010.4